GW3390 Weather Reports


time (UTC)temp
C
wind
direction
speed
KPH
gust
KPH
rain 1hr
cm
rain 24hr
cm
rain mn
cm
humidity
%
barometer
mb
20260504041558 13 195 4.8 16.1 0.00 0.00 0.00 58 1014.7
20260504041100 13 209 6.4 16.1 0.00 0.00 0.00 57 1014.6
20260504040559 13 207 6.4 17.7 0.00 0.00 0.00 57 1014.9
20260504040107 13 163 6.4 17.7 0.00 0.00 0.00 57 1014.9
20260504035558 13 215 4.8 16.1 0.00 0.00 0.00 57 1014.9
20260504035101 13 192 4.8 16.1 0.00 0.00 0.00 58 1014.9
20260504034634 13 234 4.8 9.7 0.00 0.00 0.00 59 1014.9
20260504034103 12 234 4.8 9.7 0.00 0.00 0.00 59 1015.1
20260504033600 12 221 3.2 9.7 0.00 0.00 0.00 60 1015.2
20260504033058 12 203 3.2 8.0 0.00 0.00 0.00 60 1015.3
20260504032600 13 211 1.6 8.0 0.00 0.00 0.00 59 1015.2
20260504032100 13 219 3.2 8.0 0.00 0.00 0.00 59 1015.4
20260504031600 13 207 3.2 8.0 0.00 0.00 0.00 59 1015.5
20260504031056 13 194 3.2 6.4 0.00 0.00 0.00 59 1015.5
20260504030559 13 199 0.0 6.4 0.00 0.00 0.00 59 1015.7
20260504030121 13 200 1.6 4.8 0.00 0.00 0.00 58 1015.7
20260504025600 13 187 1.6 4.8 0.00 0.00 0.00 59 1015.7
20260504025056 13 186 0.0 3.2 0.00 0.00 0.00 59 1015.7
20260504024602 13 0 1.6 4.8 0.00 0.00 0.00 59 1015.7
20260504024056 13 217 1.6 4.8 0.00 0.00 0.00 59 1015.7
20260504023556 13 0 1.6 3.2 0.00 0.00 0.00 58 1015.6
20260504023102 13 217 0.0 3.2 0.00 0.00 0.00 58 1015.6
20260504022557 13 0 0.0 3.2 0.00 0.00 0.00 58 1015.8
20260504022055 13 0 1.6 3.2 0.00 0.00 0.00 57 1015.6
20260504021558 14 0 0.0 0.0 0.00 0.00 0.00 55 1015.7
20260504021059 14 0 0.0 0.0 0.00 0.00 0.00 54 1015.6
20260504020556 15 0 0.0 0.0 0.00 0.00 0.00 54 1015.5
20260504020108 15 0 0.0 1.6 0.00 0.00 0.00 53 1015.4
20260504015601 15 0 0.0 3.2 0.00 0.00 0.00 53 1015.3
20260504015100 15 0 0.0 3.2 0.00 0.00 0.00 52 1015.2
20260504014608 15 0 0.0 4.8 0.00 0.00 0.00 52 1015.2
20260504014101 15 0 0.0 4.8 0.00 0.00 0.00 52 1015.0
20260504013559 15 0 0.0 4.8 0.00 0.00 0.00 52 1014.9
20260504013058 15 213 1.6 4.8 0.00 0.00 0.00 52 1014.9
20260504012556 15 190 1.6 4.8 0.00 0.00 0.00 51 1014.8
20260504012056 15 0 0.0 4.8 0.00 0.00 0.00 51 1014.9
20260504011556 15 0 0.0 4.8 0.00 0.00 0.00 51 1014.9
20260504011058 15 0 0.0 3.2 0.00 0.00 0.00 51 1014.7
20260504010558 15 0 0.0 4.8 0.00 0.00 0.00 50 1014.9
20260504010058 16 0 1.6 4.8 0.00 0.00 0.00 50 1014.7
20260504005559 16 223 1.6 4.8 0.00 0.00 0.00 48 1014.8
20260504005105 16 0 0.0 4.8 0.00 0.00 0.00 47 1014.8
20260504004558 16 221 0.0 4.8 0.00 0.00 0.00 46 1014.8
20260504004100 16 0 0.0 4.8 0.00 0.00 0.00 45 1014.8
20260504003601 17 0 0.0 4.8 0.00 0.00 0.00 45 1014.8
20260504003100 17 0 0.0 4.8 0.00 0.00 0.00 44 1014.9
20260504002559 17 213 0.0 3.2 0.00 0.00 0.00 43 1014.9
20260504002059 17 207 0.0 6.4 0.00 0.00 0.00 42 1014.7
20260504001607 17 192 1.6 6.4 0.00 0.00 0.00 42 1014.9
20260504001059 17 184 3.2 8.0 0.00 0.00 0.00 41 1014.9
20260504000559 18 188 3.2 8.0 0.00 0.00 0.00 40 1015.1
20260504000100 18 193 1.6 6.4 0.00 0.00 0.00 40 1015.1
20260503235559 18 222 0.0 6.4 0.00 0.00 0.00 40 1015.1
20260503235059 18 195 3.2 6.4 0.00 0.00 0.00 40 1015.1
20260503234558 18 187 1.6 6.4 0.00 0.00 0.00 39 1015.2
20260503234059 18 185 0.0 6.4 0.00 0.00 0.00 38 1015.3
20260503233559 19 169 0.0 4.8 0.00 0.00 0.00 37 1015.4
20260503233102 19 0 0.0 6.4 0.00 0.00 0.00 36 1015.6
20260503232600 20 263 1.6 6.4 0.00 0.00 0.00 36 1015.6
20260503232059 20 0 1.6 6.4 0.00 0.00 0.00 36 1015.6
20260503231558 20 257 1.6 9.7 0.00 0.00 0.00 35 1015.7
20260503231059 20 254 3.2 9.7 0.00 0.00 0.00 35 1015.8
20260503230600 19 258 1.6 9.7 0.00 0.00 0.00 37 1015.8
20260503225559 19 184 1.6 9.7 0.00 0.00 0.00 36 1015.8
20260503225102 19 0 3.2 9.7 0.00 0.00 0.00 36 1015.9
20260503224558 19 256 1.6 9.7 0.00 0.00 0.00 35 1015.8
20260503224100 19 220 1.6 12.9 0.00 0.00 0.00 36 1015.9
20260503223559 20 0 3.2 12.9 0.00 0.00 0.00 36 1015.9
20260503223057 20 232 4.8 11.3 0.00 0.00 0.00 38 1015.9
20260503222558 20 0 3.2 11.3 0.00 0.00 0.00 39 1015.9
20260503222100 20 215 1.6 9.7 0.00 0.00 0.00 38 1016.1
20260503221602 20 249 1.6 17.7 0.00 0.00 0.00 38 1016.2
20260503221101 20 157 1.6 17.7 0.00 0.00 0.00 36 1016.2
20260503220600 20 0 3.2 9.7 0.00 0.00 0.00 38 1016.3
20260503220059 19 273 1.6 14.5 0.00 0.00 0.00 37 1016.2
20260503215600 19 279 1.6 16.1 0.00 0.00 0.00 37 1016.4
20260503215059 20 171 4.8 16.1 0.00 0.00 0.00 37 1016.5
20260503214604 20 182 1.6 11.3 0.00 0.00 0.00 36 1016.5
20260503214059 20 258 3.2 11.3 0.00 0.00 0.00 37 1016.6
20260503213559 20 0 1.6 9.7 0.00 0.00 0.00 36 1016.7
20260503213103 20 266 3.2 9.7 0.00 0.00 0.00 37 1016.7
20260503212601 20 264 3.2 9.7 0.00 0.00 0.00 35 1016.8
20260503212100 20 279 1.6 9.7 0.00 0.00 0.00 35 1016.8
20260503211602 20 277 1.6 9.7 0.00 0.00 0.00 36 1017.0
20260503211102 19 269 1.6 6.4 0.00 0.00 0.00 37 1017.1
20260503210600 19 247 1.6 11.3 0.00 0.00 0.00 36 1017.1
20260503210057 19 0 1.6 11.3 0.00 0.00 0.00 36 1017.2
20260503205600 19 315 1.6 9.7 0.00 0.00 0.00 35 1017.2
20260503205100 19 273 0.0 9.7 0.00 0.00 0.00 37 1017.3
20260503204602 19 200 3.2 9.7 0.00 0.00 0.00 34 1017.4
20260503204059 19 126 0.0 9.7 0.00 0.00 0.00 35 1017.6
20260503203559 19 254 1.6 11.3 0.00 0.00 0.00 35 1017.5
20260503203057 19 279 3.2 11.3 0.00 0.00 0.00 35 1017.6
20260503202559 19 259 1.6 6.4 0.00 0.00 0.00 37 1017.7
20260503202101 19 270 3.2 9.7 0.00 0.00 0.00 34 1017.9
20260503201601 18 265 0.0 14.5 0.00 0.00 0.00 37 1017.9
20260503201059 18 240 3.2 14.5 0.00 0.00 0.00 35 1018.0
20260503200559 18 125 3.2 9.7 0.00 0.00 0.00 37 1018.2
20260503200100 19 148 0.0 8.0 0.00 0.00 0.00 34 1018.2
20260503195558 19 261 3.2 11.3 0.00 0.00 0.00 35 1018.5
20260503195059 19 248 3.2 11.3 0.00 0.00 0.00 38 1018.5
20260503194601 19 267 3.2 9.7 0.00 0.00 0.00 35 1018.5
20260503194101 19 0 1.6 9.7 0.00 0.00 0.00 38 1018.7
20260503193559 18 0 3.2 9.7 0.00 0.00 0.00 36 1018.7
20260503193111 18 278 1.6 6.4 0.00 0.00 0.00 39 1018.9
20260503192559 18 263 1.6 9.7 0.00 0.00 0.00 38 1018.8
20260503192059 18 285 3.2 9.7 0.00 0.00 0.00 40 1019.0
20260503191600 18 0 3.2 9.7 0.00 0.00 0.00 38 1019.1
20260503191101 18 0 1.6 9.7 0.00 0.00 0.00 36 1019.1
20260503190559 18 271 3.2 9.7 0.00 0.00 0.00 35 1019.3
20260503190109 17 263 1.6 11.3 0.00 0.00 0.00 35 1019.3
20260503185559 17 254 3.2 11.3 0.00 0.00 0.00 36 1019.4
20260503185100 17 126 1.6 9.7 0.00 0.00 0.00 38 1019.4
20260503184602 17 274 3.2 11.3 0.00 0.00 0.00 37 1019.4
20260503184058 17 286 1.6 11.3 0.00 0.00 0.00 37 1019.5
20260503183559 17 211 1.6 20.9 0.00 0.00 0.00 39 1019.7
20260503183114 17 142 6.4 20.9 0.00 0.00 0.00 39 1019.7
20260503182557 17 0 4.8 11.3 0.00 0.00 0.00 41 1019.7
20260503182059 17 183 3.2 11.3 0.00 0.00 0.00 40 1019.9
20260503181559 17 301 1.6 4.8 0.00 0.00 0.00 40 1019.9
20260503181101 17 0 1.6 6.4 0.00 0.00 0.00 40 1020.0
20260503180600 16 347 0.0 9.7 0.00 0.00 0.00 43 1020.1
20260503180100 16 0 1.6 9.7 0.00 0.00 0.00 42 1020.2
20260503175559 16 189 1.6 11.3 0.00 0.00 0.00 40 1020.2
20260503175100 16 128 1.6 11.3 0.00 0.00 0.00 39 1020.3
20260503174559 16 106 0.0 8.0 0.00 0.00 0.00 40 1020.4
20260503174102 16 179 3.2 8.0 0.00 0.00 0.00 40 1020.4
20260503173604 16 220 1.6 11.3 0.00 0.00 0.00 44 1020.4
20260503173114 16 276 1.6 11.3 0.00 0.00 0.00 39 1020.5
20260503172559 16 181 1.6 14.5 0.00 0.00 0.00 44 1020.5
20260503172101 16 177 6.4 14.5 0.00 0.00 0.00 43 1020.6
20260503171558 16 202 3.2 14.5 0.00 0.00 0.00 44 1020.6
20260503171100 16 211 3.2 11.3 0.00 0.00 0.00 47 1020.7
20260503170601 16 0 1.6 16.1 0.00 0.00 0.00 45 1020.8
20260503150559 13 38 1.6 6.4 0.00 0.00 0.00 47 1021.7
20260503150111 13 89 0.0 6.4 0.00 0.00 0.00 43 1021.7
20260503140119 11 190 0.0 6.4 0.00 0.00 0.00 73 1021.7
20260503131059 9 0 0.0 4.8 0.00 0.00 0.00 85 1021.6
20260503130559 8 64 3.2 4.8 0.00 0.00 0.00 84 1021.6
20260503130109 8 151 1.6 6.4 0.00 0.00 0.00 87 1021.7
20260503110601 3 0 0.0 0.0 0.00 0.00 0.00 94 1020.5
20260503110117 3 0 0.0 3.2 0.00 0.00 0.00 94 1020.3
20260503100109 3 0 0.0 0.0 0.00 0.00 0.00 94 1020.1
20260503081615 5 0 0.0 0.0 0.00 0.00 0.00 94 1019.8
20260503081059 5 0 0.0 0.0 0.00 0.00 0.00 94 1019.7
20260503080600 5 0 0.0 0.0 0.00 0.00 0.00 94 1019.8
20260503080104 5 0 0.0 0.0 0.00 0.00 0.00 94 1019.9
20260503072600 5 181 0.0 1.6 0.00 0.00 0.00 93 1019.6
20260503072103 5 0 0.0 1.6 0.00 0.00 0.00 93 1019.8
20260503071610 5 0 0.0 1.6 0.00 0.00 0.00 93 1019.7
20260503071058 5 0 0.0 3.2 0.00 0.00 0.00 93 1019.7
20260503070559 5 0 0.0 3.2 0.00 0.00 0.00 93 1019.6
20260503060111 5 0 0.0 0.0 0.00 0.00 0.00 92 1019.7
20260503055059 5 0 0.0 0.0 0.00 0.00 0.00 92 1019.6
20260503054608 5 0 0.0 0.0 0.00 0.00 0.00 92 1019.6
20260503054059 5 0 0.0 0.0 0.00 0.00 0.00 92 1019.5
20260503053600 5 0 0.0 0.0 0.00 0.00 0.00 92 1019.5
20260503053102 5 0 0.0 0.0 0.00 0.00 0.00 92 1019.5
20260503052600 5 0 0.0 0.0 0.00 0.00 0.00 91 1019.5
20260503052101 5 0 0.0 0.0 0.00 0.00 0.00 91 1019.5
20260503051601 5 0 0.0 0.0 0.00 0.00 0.00 91 1019.5
20260503051100 5 0 0.0 0.0 0.00 0.00 0.00 91 1019.4
20260503050601 5 0 0.0 0.0 0.00 0.00 0.00 91 1019.4
20260503050105 5 0 0.0 0.0 0.00 0.00 0.00 91 1019.3
20260503045559 5 0 0.0 0.0 0.00 0.00 0.00 91 1019.4
20260503045100 5 0 0.0 0.0 0.00 0.00 0.00 91 1019.3
20260503044610 6 0 0.0 0.0 0.00 0.00 0.00 91 1019.4
20260503044103 6 0 0.0 0.0 0.00 0.00 0.00 91 1019.3
20260503043557 6 0 0.0 0.0 0.00 0.00 0.00 91 1019.3
20260503043110 6 0 0.0 0.0 0.00 0.00 0.00 91 1019.3
20260503042558 6 0 0.0 0.0 0.00 0.00 0.00 90 1019.3
20260503042100 6 0 0.0 0.0 0.00 0.00 0.00 90 1019.3